Погода в Михайлове

Россия / Ивановская область     57°20′15″N   42°46′03″E
темп.,
°C
ветер,
м/с
пор.,
м/с
влажн.,
%
обл.,
%
осадки,
мм/ч
давл.,
гПа
погр.,
м
17 сентября, пт
пт1700:00+6зсз3672100 0.0 1017218
03:00+5сз3674100 0.0 1018257
06:00+5ссз258186 0.0 1018234
09:00+7с345947 0.1 1018945
12:00+8ссз3447100 0.0 10181654
15:00+9сз454997 0.1 10181493
18:00+8ссз486496 0.1 1019508
21:00+3ссз37875 0.1 1020148
18 сентября, сб
сб1800:00+4ссз3779100 0.0 1021331
03:00+3сз269091 0.0 1022161
06:00+5с2690100 0.0 1023338
09:00+6ссв3682100 0.2 1024537
12:00+7ссв346477 0.1 10251000
15:00+8ссв3455100 0.1 10251162
18:00+7св125735 0.0 102539
21:00+4св226677 0.0 102621
19 сентября, вс
вс1900:00+3св23805 0.0 102742
03:00+1св2289100 0.0 102729
06:000ссв2293100 0.0 102824
09:00+5св337076 0.0 1028573
12:00+8всв3352100 0.0 1027998
15:00+9всв344795 0.0 10261072
18:00+6всв3764100 0.0 1025143
21:00+6всв4868100 0.0 1026242
20 сентября, пн
пн2000:00+5всв61074100 0.0 1025451
03:00+3всв61178100 0.0 1026527
06:00+3всв61176100 0.0 1026584
09:00+4всв61166100 0.0 1026683
12:00+7в795598 0.0 1026966
15:00+8в794973 0.0 10251224
18:00+6в7115659 0.0 1024922
21:00+6в7126099 0.0 1024983
21 сентября, вт
вт2100:00+5в71367100 0.1 1023779
03:00+5в71475100 0.3 1022695
06:00+4в71483100 0.7 1021701
09:00+5в71483100 1.9 1019771
12:00+5в71487100 2.2 1018794
15:00+4в71492100 6.6 1017753
18:00+5в71393100 4.1 1017877
21:00+5в71193100 6.8 1016843